Location: Unspecified
(47.2333°N, 39.7000°E)
Time: 06:30:29
(UTC+00:00)

ISS - Pass Details

Date: 05 March 2021
Orbit: 418 x 422 km, 51.6° (Epoch: 16 April)

Event Time Altitude Azimuth Distance (km) Brightness Sun altitude
Exits shadow 02:20:06 27° 318° (NW) 840 -2.5 -16.7°
Maximum altitude 02:21:24 40° 9° (N) 630 -2.8 -16.5°
Drops below altitude 10° 02:24:37 10° 81° (E) 1,499 0.4 -15.9°
Sets 02:26:47 0° 89° (E) 2,363 1.9 -15.6°
